Location: 22
(39.7117°N, 89.5929°W)
Time: 10:12:48
(UTC-05:00)

Transit 2A - Pass Details

Date: 11 August 2024
Orbit: 590 x 961 km, 66.7° (Epoch: 13 September)

Event Time Altitude Azimuth Distance (km) Brightness Sun altitude
Rises 13:31:10 0° 325° (NW) 3,651 9.3 64.5°
Reaches altitude 10° 13:33:50 10° 320° (NW) 2,698 8.8 64.4°
Maximum altitude 13:39:54 48° 248° (WSW) 1,202 8.3 64.0°
Drops below altitude 10° 13:45:40 10° 176° (S) 2,563 9.2 63.6°
Sets 13:48:09 0° 170° (S) 3,452 9.7 63.4°
